When you browse on this site, cookies collect data to enhance your experience and personalize the content and advertising you see.
Visit our Privacy Policy to learn more. By continuing to use the site, you agree to this use of cookies and data.
  • In Latvia
  • List of Countries
  • For 7 days
  • Water Temperature
  • Weather Map
  • Weather Widgets
  • user-avatar
    Login

    Hourly Weather Dankon

    Today, 21 September, Saturday

    Time Temperature Precipitation Wind Pressure Humidity
    00:00 +23°C° 0 mm 1 mps 702 mmHg 93%
    01:00 +20°C° 0 mm 0 mps 702 mmHg 94%
    02:00 +20°C° 0 mm 0 mps 702 mmHg 95%
    03:00 +19°C° 0 mm 0 mps 702 mmHg 96%
    04:00 +19°C° 0 mm 0 mps 702 mmHg 97%
    05:00 +19°C° 0 mm 0 mps 702 mmHg 96%
    06:00 +20°C° 0 mm 0 mps 702 mmHg 95%
    07:00 +22°C° 0 mm 1 mps 703 mmHg 92%
    08:00 +25°C° 0 mm 1 mps 703 mmHg 79%
    09:00 +27°C° 0 mm 1 mps 703 mmHg 66%
    10:00 +30°C° 0 mm 2 mps 704 mmHg 53%
    11:00 +31°C° 0 mm 2 mps 703 mmHg 50%
    12:00 +32°C° 0 mm 2 mps 703 mmHg 47%
    13:00 +34°C° 0 mm 2 mps 702 mmHg 43%
    14:00 +33°C° 0 mm 1 mps 702 mmHg 45%
    15:00 +32°C° 0 mm 1 mps 701 mmHg 47%
    16:00 +32°C° 0 mm 1 mps 701 mmHg 48%
    17:00 +30°C° 0 mm 1 mps 701 mmHg 55%
    18:00 +28°C° 0 mm 1 mps 701 mmHg 62%
    19:00 +26°C° 0 mm 1 mps 702 mmHg 68%
    20:00 +25°C° 0 mm 1 mps 702 mmHg 71%
    21:00 +24°C° 0 mm 1 mps 703 mmHg 74%
    22:00 +23°C° 0 mm 1 mps 704 mmHg 77%
    23:00 +23°C° 0 mm 1 mps 704 mmHg 80%

    Tomorrow, 22 September, Sunday

    Time Temperature Precipitation Wind Pressure Humidity
    00:00 +22°C° 0 mm 1 mps 704 mmHg 84%
    01:00 +19°C° 0 mm 0 mps 704 mmHg 87%
    02:00 +19°C° 0 mm 0 mps 703 mmHg 89%
    03:00 +18°C° 0 mm 0 mps 703 mmHg 90%
    04:00 +18°C° 0 mm 0 mps 703 mmHg 92%
    05:00 +18°C° 0 mm 0 mps 703 mmHg 90%
    06:00 +19°C° 0 mm 0 mps 704 mmHg 89%
    07:00 +19°C° 0 mm 0 mps 704 mmHg 87%
    08:00 +23°C° 0 mm 1 mps 704 mmHg 75%
    09:00 +26°C° 0 mm 2 mps 705 mmHg 62%
    10:00 +29°C° 0 mm 2 mps 705 mmHg 50%
    11:00 +30°C° 0 mm 2 mps 705 mmHg 46%
    12:00 +31°C° 0 mm 2 mps 705 mmHg 42%
    13:00 +32°C° 0 mm 2 mps 704 mmHg 39%
    14:00 +32°C° 0 mm 2 mps 704 mmHg 42%
    15:00 +31°C° 0 mm 2 mps 703 mmHg 44%
    16:00 +31°C° 0 mm 1 mps 703 mmHg 47%
    17:00 +29°C° 0 mm 1 mps 703 mmHg 51%
    18:00 +27°C° 0 mm 1 mps 704 mmHg 55%
    19:00 +25°C° 0 mm 1 mps 704 mmHg 59%
    20:00 +23°C° 0 mm 1 mps 704 mmHg 63%
    21:00 +22°C° 0 mm 1 mps 705 mmHg 68%
    22:00 +21°C° 0 mm 1 mps 706 mmHg 72%
    23:00 +20°C° 0 mm 1 mps 705 mmHg 74%

    Day after tomorrow, 23 September, Monday

    Time Temperature Precipitation Wind Pressure Humidity
    00:00 +17°C° 0 mm 0 mps 705 mmHg 77%
    01:00 +17°C° 0 mm 0 mps 705 mmHg 80%
    02:00 +16°C° 0 mm 0 mps 705 mmHg 81%
    03:00 +16°C° 0 mm 0 mps 705 mmHg 83%
    04:00 +16°C° 0 mm 0 mps 704 mmHg 85%
    05:00 +16°C° 0 mm 0 mps 705 mmHg 83%
    06:00 +16°C° 0 mm 0 mps 705 mmHg 82%
    07:00 +17°C° 0 mm 0 mps 706 mmHg 80%
    08:00 +22°C° 0 mm 1 mps 706 mmHg 68%
    09:00 +25°C° 0 mm 1 mps 707 mmHg 57%
    10:00 +27°C° 0 mm 2 mps 707 mmHg 45%
    11:00 +29°C° 0 mm 2 mps 707 mmHg 41%
    12:00 +30°C° 0 mm 2 mps 706 mmHg 37%
    13:00 +31°C° 0 mm 2 mps 706 mmHg 33%
    14:00 +31°C° 0 mm 2 mps 705 mmHg 33%
    15:00 +31°C° 0 mm 2 mps 704 mmHg 34%
    16:00 +31°C° 0 mm 1 mps 704 mmHg 34%
    17:00 +28°C° 0 mm 1 mps 704 mmHg 43%
    18:00 +26°C° 0 mm 1 mps 704 mmHg 51%
    19:00 +23°C° 0 mm 1 mps 704 mmHg 59%
    20:00 +22°C° 0 mm 1 mps 705 mmHg 62%
    21:00 +21°C° 0 mm 1 mps 706 mmHg 65%
    22:00 +21°C° 0 mm 1 mps 706 mmHg 69%
    23:00 +20°C° 0 mm 1 mps 706 mmHg 72%

    24 September, Tuesday

    Time Temperature Precipitation Wind Pressure Humidity
    00:00 +19°C° 0 mm 1 mps 706 mmHg 76%
    01:00 +18°C° 0 mm 1 mps 706 mmHg 79%
    02:00 +18°C° 0 mm 1 mps 705 mmHg 81%
    03:00 +16°C° 0 mm 1 mps 705 mmHg 83%
    04:00 +15°C° 0 mm 0 mps 705 mmHg 85%
    05:00 +16°C° 0 mm 0 mps 706 mmHg 84%
    06:00 +16°C° 0 mm 0 mps 706 mmHg 82%
    07:00 +16°C° 0 mm 0 mps 706 mmHg 80%
    08:00 +21°C° 0 mm 1 mps 707 mmHg 68%
    09:00 +24°C° 0 mm 1 mps 707 mmHg 56%
    10:00 +27°C° 0 mm 2 mps 708 mmHg 43%
    11:00 +28°C° 0 mm 2 mps 707 mmHg 40%
    12:00 +29°C° 0 mm 2 mps 706 mmHg 36%
    13:00 +31°C° 0 mm 2 mps 706 mmHg 33%
    14:00 +31°C° 0 mm 2 mps 705 mmHg 33%
    15:00 +31°C° 0 mm 1 mps 705 mmHg 34%
    16:00 +31°C° 0 mm 1 mps 705 mmHg 35%
    17:00 +28°C° 0 mm 1 mps 705 mmHg 43%
    18:00 +25°C° 0 mm 1 mps 705 mmHg 52%
    19:00 +23°C° 0 mm 1 mps 705 mmHg 61%
    20:00 +22°C° 0 mm 1 mps 706 mmHg 64%
    21:00 +21°C° 0 mm 1 mps 706 mmHg 67%
    22:00 +20°C° 0 mm 1 mps 707 mmHg 69%
    23:00 +19°C° 0 mm 1 mps 707 mmHg 73%

    25 September, Wednesday

    Time Temperature Precipitation Wind Pressure Humidity
    00:00 +19°C° 0 mm 1 mps 706 mmHg 77%
    01:00 +18°C° 0 mm 1 mps 706 mmHg 80%
    02:00 +16°C° 0 mm 0 mps 706 mmHg 83%
    03:00 +15°C° 0 mm 0 mps 706 mmHg 86%
    04:00 +15°C° 0 mm 0 mps 705 mmHg 89%
    05:00 +15°C° 0 mm 0 mps 706 mmHg 87%
    06:00 +16°C° 0 mm 0 mps 706 mmHg 85%
    07:00 +16°C° 0 mm 0 mps 707 mmHg 83%
    08:00 +21°C° 0 mm 1 mps 707 mmHg 71%
    09:00 +24°C° 0 mm 1 mps 708 mmHg 59%
    10:00 +27°C° 0 mm 1 mps 708 mmHg 48%
    11:00 +29°C° 0 mm 1 mps 708 mmHg 44%
    12:00 +30°C° 0 mm 1 mps 707 mmHg 40%
    13:00 +32°C° 0 mm 1 mps 707 mmHg 36%
    14:00 +31°C° 0 mm 1 mps 706 mmHg 38%
    15:00 +31°C° 0 mm 1 mps 705 mmHg 40%
    16:00 +31°C° 0 mm 1 mps 705 mmHg 42%
    17:00 +27°C° 0 mm 0 mps 705 mmHg 49%
    18:00 +25°C° 0 mm 0 mps 705 mmHg 55%
    19:00 +23°C° 0 mm 0 mps 706 mmHg 61%
    20:00 +22°C° 0 mm 0 mps 706 mmHg 65%
    21:00 +21°C° 0 mm 0 mps 707 mmHg 69%
    22:00 +22°C° 0 mm 1 mps 707 mmHg 73%
    23:00 +21°C° 0 mm 1 mps 707 mmHg 76%

    26 September, Thursday

    Time Temperature Precipitation Wind Pressure Humidity
    00:00 +19°C° 0 mm 0 mps 707 mmHg 80%
    01:00 +18°C° 0 mm 0 mps 706 mmHg 84%
    02:00 +17°C° 0 mm 0 mps 706 mmHg 86%
    03:00 +17°C° 0 mm 0 mps 706 mmHg 88%
    04:00 +17°C° 0 mm 0 mps 706 mmHg 90%
    05:00 +17°C° 0 mm 0 mps 706 mmHg 89%
    06:00 +17°C° 0 mm 0 mps 706 mmHg 87%
    07:00 +18°C° 0 mm 0 mps 706 mmHg 86%
    08:00 +23°C° 0 mm 1 mps 707 mmHg 73%
    09:00 +25°C° 0 mm 1 mps 707 mmHg 60%
    10:00 +28°C° 0 mm 1 mps 708 mmHg 47%
    11:00 +30°C° 0 mm 1 mps 707 mmHg 43%
    12:00 +31°C° 0 mm 1 mps 707 mmHg 40%
    13:00 +32°C° 0 mm 1 mps 706 mmHg 36%
    14:00 +32°C° 0 mm 1 mps 706 mmHg 39%
    15:00 +31°C° 0 mm 1 mps 705 mmHg 42%
    16:00 +31°C° 0 mm 1 mps 704 mmHg 45%
    17:00 +27°C° 0 mm 0 mps 704 mmHg 52%
    18:00 +25°C° 0 mm 0 mps 705 mmHg 59%
    19:00 +23°C° 0 mm 0 mps 705 mmHg 66%
    20:00 +22°C° 0 mm 0 mps 705 mmHg 69%
    21:00 +21°C° 0 mm 0 mps 706 mmHg 71%
    22:00 +21°C° 0 mm 0 mps 706 mmHg 74%
    23:00 +20°C° 0 mm 0 mps 706 mmHg 76%
    Show more